Location: Casteau
(50.5142°N, 4.0161°E)
Time: 05:54:59
(UTC+00:00)

Vanguard 1 Rocket - Pass Details

Date: 31 July 2021
Orbit: 650 x 4226 km, 34.3° (Epoch: 21 September)

Event Time Altitude Azimuth Distance (km) Brightness Sun altitude
Rises 12:56:19 0° 256° (WSW) 6,633 12.1 55.0°
Reaches altitude 10° 13:02:10 10° 248° (WSW) 4,958 11.7 54.6°
Maximum altitude 13:12:04 28° 196° (SSW) 2,568 11.0 53.7°
Drops below altitude 10° 13:18:08 10° 140° (SE) 2,948 10.3 53.2°
Sets 13:20:38 0° 127° (SE) 3,611 10.5 52.9°
